FHY110 LTAU-LTBH

Flight info

Callsign FHY110
Flight time 1h 13m
Altitude 28000
Route KISLA A17 BAG G8 YAA/N0452F360 DCT BIG
Aircraft A320/M-SDE3FGHIRWY/LB1

Departure

Time 2026-05-05 19:36
Airport Kayseri Erkilet International Airport (LTAU)

Arrival

Time 2026-05-05 20:49
Airport Çanakkale Airport (LTBH)
Time Latitude Longitude Altitude Speed Heading
2026-05-05 19:13 38.76626 35.48522 3468 ft 0 kts 166°
2026-05-05 19:24 38.76631 35.48520 3467 ft 3 kts 166°
2026-05-05 19:24 38.76658 35.48512 3466 ft 4 kts 167°
2026-05-05 19:24 38.76683 35.48503 3466 ft 4 kts 154°
2026-05-05 19:24 38.76700 35.48487 3468 ft 3 kts 88°
2026-05-05 19:25 38.76700 35.48482 3468 ft 0 kts 77°
2026-05-05 19:27 38.76708 35.48526 3467 ft 15 kts 76°
2026-05-05 19:27 38.76733 35.48631 3466 ft 8 kts 40°
2026-05-05 19:27 38.76778 35.48635 3468 ft 6 kts 347°
2026-05-05 19:27 38.76812 35.48625 3468 ft 6 kts 347°
2026-05-05 19:28 38.76899 35.48600 3467 ft 13 kts 347°
2026-05-05 19:28 38.76990 35.48584 3466 ft 14 kts 14°
2026-05-05 19:28 38.77013 35.48648 3464 ft 8 kts 79°
2026-05-05 19:28 38.77024 35.48709 3464 ft 6 kts 76°
2026-05-05 19:29 38.77041 35.48798 3466 ft 12 kts 76°
2026-05-05 19:29 38.77058 35.48887 3468 ft 8 kts 76°
2026-05-05 19:29 38.77070 35.48947 3469 ft 6 kts 76°
2026-05-05 19:29 38.77090 35.49053 3469 ft 17 kts 76°
2026-05-05 19:30 38.77115 35.49184 3470 ft 13 kts 75°
2026-05-05 19:30 38.77134 35.49286 3469 ft 12 kts 77°
2026-05-05 19:30 38.77156 35.49405 3468 ft 17 kts 77°
2026-05-05 19:30 38.77191 35.49590 3466 ft 20 kts 76°
2026-05-05 19:31 38.77223 35.49755 3464 ft 19 kts 76°
2026-05-05 19:31 38.77255 35.49923 3461 ft 20 kts 76°
2026-05-05 19:31 38.77287 35.50092 3462 ft 18 kts 76°
2026-05-05 19:31 38.77317 35.50249 3461 ft 18 kts 76°
2026-05-05 19:32 38.77344 35.50392 3465 ft 15 kts 76°
2026-05-05 19:32 38.77365 35.50502 3467 ft 11 kts 76°
2026-05-05 19:32 38.77385 35.50604 3467 ft 17 kts 77°
2026-05-05 19:32 38.77412 35.50757 3468 ft 17 kts 77°
2026-05-05 19:33 38.77439 35.50892 3470 ft 13 kts 75°
2026-05-05 19:33 38.77460 35.50995 3471 ft 11 kts 75°
2026-05-05 19:33 38.77478 35.51085 3470 ft 10 kts 75°
2026-05-05 19:33 38.77472 35.51159 3468 ft 8 kts 127°
2026-05-05 19:34 38.77423 35.51185 3468 ft 7 kts 165°
2026-05-05 19:34 38.77376 35.51191 3468 ft 6 kts 197°
2026-05-05 19:34 38.77351 35.51154 3469 ft 8 kts 253°
2026-05-05 19:35 38.77342 35.51112 3469 ft 0 kts 257°
2026-05-05 19:35 38.77340 35.51097 3470 ft 10 kts 257°
2026-05-05 19:35 38.77251 35.50632 3469 ft 97 kts 256°
2026-05-05 19:36 38.77034 35.49475 3477 ft 165 kts 257°
2026-05-05 19:36 38.76766 35.47976 4088 ft 180 kts 258°
2026-05-05 19:36 38.76505 35.46343 4910 ft 195 kts 260°
2026-05-05 19:36 38.76347 35.44547 5626 ft 212 kts 279°
2026-05-05 19:37 38.77051 35.42852 6346 ft 226 kts 318°
2026-05-05 19:37 38.78338 35.41762 7039 ft 225 kts 328°
2026-05-05 19:37 38.79509 35.40457 7734 ft 223 kts 304°
2026-05-05 19:37 38.80215 35.38633 8196 ft 239 kts 293°
2026-05-05 19:38 38.80858 35.36554 8528 ft 262 kts 291°
2026-05-05 19:38 38.81521 35.34320 9160 ft 272 kts 291°
2026-05-05 19:38 38.82192 35.32028 9950 ft 276 kts 291°
2026-05-05 19:38 38.82882 35.29668 10432 ft 293 kts 291°
2026-05-05 19:39 38.83630 35.27129 10655 ft 316 kts 291°
2026-05-05 19:39 38.84433 35.24404 10921 ft 335 kts 292°
2026-05-05 19:39 38.85269 35.21571 11511 ft 342 kts 292°
2026-05-05 19:39 38.86117 35.18702 12205 ft 346 kts 292°
2026-05-05 19:40 38.86980 35.15787 12912 ft 350 kts 292°
2026-05-05 19:40 38.87848 35.12858 13618 ft 354 kts 292°
2026-05-05 19:40 38.88728 35.09886 14261 ft 357 kts 292°
2026-05-05 19:40 38.89613 35.06888 14873 ft 360 kts 292°
2026-05-05 19:41 38.90503 35.03869 15494 ft 363 kts 292°
2026-05-05 19:41 38.91400 35.00818 16106 ft 366 kts 292°
2026-05-05 19:41 38.92303 34.97747 16722 ft 369 kts 291°
2026-05-05 19:41 38.93216 34.94647 17335 ft 372 kts 291°
2026-05-05 19:42 38.94132 34.91529 17949 ft 375 kts 291°
2026-05-05 19:42 38.95054 34.88385 18531 ft 378 kts 291°
2026-05-05 19:42 38.95980 34.85215 19077 ft 380 kts 291°
2026-05-05 19:42 38.96913 34.82022 19634 ft 383 kts 292°
2026-05-05 19:43 38.97850 34.78811 20190 ft 385 kts 292°
2026-05-05 19:43 38.98788 34.75585 20733 ft 387 kts 292°
2026-05-05 19:43 38.99732 34.72339 21268 ft 389 kts 292°
2026-05-05 19:43 39.00682 34.69075 21787 ft 390 kts 292°
2026-05-05 19:44 39.01635 34.65798 22315 ft 392 kts 292°
2026-05-05 19:44 39.02593 34.62503 22805 ft 394 kts 292°
2026-05-05 19:44 39.03539 34.59238 23279 ft 396 kts 293°
2026-05-05 19:44 39.04503 34.55899 23721 ft 398 kts 293°
2026-05-05 19:45 39.05471 34.52549 24098 ft 400 kts 293°
2026-05-05 19:45 39.06441 34.49192 24475 ft 401 kts 293°
2026-05-05 19:45 39.07413 34.45817 24840 ft 402 kts 293°
2026-05-05 19:45 39.08386 34.42440 25231 ft 403 kts 293°
2026-05-05 19:46 39.09364 34.39041 25598 ft 404 kts 294°
2026-05-05 19:46 39.10343 34.35635 25949 ft 406 kts 294°
2026-05-05 19:46 39.11466 34.32309 26277 ft 404 kts 301°
2026-05-05 19:46 39.12888 34.29187 26622 ft 404 kts 306°
2026-05-05 19:47 39.14596 34.26318 26958 ft 404 kts 312°
2026-05-05 19:47 39.16400 34.23549 27300 ft 405 kts 312°
2026-05-05 19:47 39.18217 34.20762 27598 ft 406 kts 312°
2026-05-05 19:47 39.20037 34.17966 27890 ft 408 kts 312°
2026-05-05 19:48 39.21862 34.15152 28018 ft 411 kts 312°
2026-05-05 19:48 39.25587 34.09400 28043 ft 424 kts 312°
2026-05-05 19:49 39.29420 34.03483 28032 ft 433 kts 312°
2026-05-05 19:49 39.33299 33.97475 28029 ft 437 kts 311°
2026-05-05 19:50 39.37164 33.91471 28030 ft 438 kts 312°
2026-05-05 19:50 39.41066 33.85404 28025 ft 439 kts 311°
2026-05-05 19:51 39.44960 33.79326 28026 ft 439 kts 311°
2026-05-05 19:51 39.48832 33.73199 28025 ft 439 kts 311°
2026-05-05 19:52 39.52651 33.67022 28001 ft 439 kts 311°
2026-05-05 19:52 39.56467 33.60835 28005 ft 440 kts 311°
2026-05-05 19:53 39.60317 33.54648 28007 ft 440 kts 311°
2026-05-05 19:53 39.64239 33.48543 28011 ft 441 kts 312°
2026-05-05 19:54 39.68178 33.42452 28016 ft 441 kts 312°
2026-05-05 19:54 39.72077 33.36362 28019 ft 441 kts 311°
2026-05-05 19:55 39.75983 33.30217 28023 ft 441 kts 311°
2026-05-05 19:55 39.79892 33.24047 28024 ft 442 kts 311°
2026-05-05 19:56 39.83795 33.17878 28020 ft 442 kts 311°
2026-05-05 19:56 39.87708 33.11698 28014 ft 443 kts 311°
2026-05-05 19:57 39.91628 33.05501 28010 ft 443 kts 311°
2026-05-05 19:57 39.95545 32.99283 28017 ft 443 kts 311°
2026-05-05 19:58 39.99451 32.93063 28022 ft 443 kts 311°
2026-05-05 19:58 40.03353 32.86842 28006 ft 444 kts 311°
2026-05-05 19:58 40.05227 32.83686 27999 ft 446 kts 306°
2026-05-05 19:59 40.06729 32.80070 28005 ft 450 kts 295°
2026-05-05 19:59 40.08265 32.72147 28009 ft 456 kts 284°
2026-05-05 20:00 40.09417 32.63979 28011 ft 457 kts 283°
2026-05-05 20:00 40.09993 32.59898 27996 ft 457 kts 283°
2026-05-05 20:00 40.10567 32.55809 28003 ft 458 kts 283°
2026-05-05 20:01 40.11713 32.47606 28015 ft 458 kts 283°
2026-05-05 20:01 40.12848 32.39413 28022 ft 459 kts 283°
2026-05-05 20:02 40.13983 32.31191 28010 ft 460 kts 282°
2026-05-05 20:02 40.14931 32.24278 28020 ft 461 kts 282°
2026-05-05 20:03 40.16051 32.16018 28026 ft 462 kts 282°
2026-05-05 20:03 40.17164 32.07728 28029 ft 463 kts 281°
2026-05-05 20:04 40.17950 31.99341 28026 ft 466 kts 277°
2026-05-05 20:04 40.18456 31.90874 28032 ft 468 kts 276°
2026-05-05 20:05 40.19079 31.82469 28047 ft 467 kts 280°
2026-05-05 20:05 40.20113 31.74062 28041 ft 467 kts 282°
2026-05-05 20:06 40.21241 31.65692 28043 ft 467 kts 282°
2026-05-05 20:06 40.22276 31.57300 28045 ft 468 kts 281°
2026-05-05 20:07 40.23242 31.48870 28037 ft 468 kts 281°
2026-05-05 20:07 40.24199 31.40445 28045 ft 468 kts 281°
2026-05-05 20:08 40.25163 31.32019 28050 ft 468 kts 281°
2026-05-05 20:08 40.26133 31.23596 28035 ft 468 kts 281°
2026-05-05 20:09 40.27096 31.15201 28050 ft 469 kts 281°
2026-05-05 20:09 40.28050 31.06740 28057 ft 470 kts 281°
2026-05-05 20:10 40.29005 30.98261 28065 ft 470 kts 281°
2026-05-05 20:10 40.29953 30.89785 28057 ft 471 kts 281°
2026-05-05 20:11 40.30901 30.81269 28063 ft 472 kts 281°
2026-05-05 20:11 40.31843 30.72746 28070 ft 472 kts 281°
2026-05-05 20:12 40.32775 30.64283 28072 ft 472 kts 281°
2026-05-05 20:12 40.33702 30.55703 28075 ft 472 kts 280°
2026-05-05 20:13 40.34619 30.47186 28075 ft 472 kts 280°
2026-05-05 20:13 40.35532 30.38660 28060 ft 472 kts 280°
2026-05-05 20:14 40.36441 30.30121 28061 ft 473 kts 280°
2026-05-05 20:14 40.37341 30.21620 28062 ft 474 kts 280°
2026-05-05 20:15 40.38234 30.13062 28065 ft 474 kts 280°
2026-05-05 20:15 40.39134 30.04488 28057 ft 475 kts 280°
2026-05-05 20:16 40.40032 29.95886 28059 ft 476 kts 280°
2026-05-05 20:16 40.40923 29.87272 28058 ft 476 kts 280°
2026-05-05 20:17 40.41796 29.78653 28053 ft 477 kts 279°
2026-05-05 20:17 40.42661 29.70012 28062 ft 478 kts 279°
2026-05-05 20:18 40.43529 29.61356 28055 ft 478 kts 279°
2026-05-05 20:18 40.44398 29.52686 28059 ft 479 kts 279°
2026-05-05 20:19 40.45255 29.43991 28054 ft 480 kts 279°
2026-05-05 20:19 40.46107 29.35302 28069 ft 480 kts 279°
2026-05-05 20:20 40.46950 29.26595 28070 ft 481 kts 279°
2026-05-05 20:20 40.47237 29.18018 28076 ft 461 kts 265°
2026-05-05 20:21 40.46437 29.09774 28077 ft 452 kts 264°
2026-05-05 20:21 40.45655 29.01582 28077 ft 451 kts 265°
2026-05-05 20:22 40.44870 28.93407 28076 ft 451 kts 264°
2026-05-05 20:22 40.44070 28.85228 27910 ft 452 kts 264°
2026-05-05 20:22 40.43667 28.81136 27675 ft 453 kts 264°
2026-05-05 20:23 40.43260 28.77032 27437 ft 453 kts 264°
2026-05-05 20:23 40.42850 28.72916 27203 ft 454 kts 264°
2026-05-05 20:23 40.42440 28.68813 26971 ft 454 kts 264°
2026-05-05 20:23 40.42031 28.64708 26732 ft 453 kts 264°
2026-05-05 20:24 40.41626 28.60654 26508 ft 452 kts 264°
2026-05-05 20:24 40.41211 28.56520 26277 ft 451 kts 264°
2026-05-05 20:24 40.40800 28.52454 26054 ft 449 kts 264°
2026-05-05 20:24 40.40389 28.48449 25833 ft 448 kts 264°
2026-05-05 20:25 40.39970 28.44356 25607 ft 446 kts 264°
2026-05-05 20:25 40.39557 28.40328 25389 ft 445 kts 264°
2026-05-05 20:25 40.39152 28.36369 25164 ft 443 kts 264°
2026-05-05 20:25 40.38743 28.32378 24977 ft 439 kts 265°
2026-05-05 20:26 40.38334 28.28418 25001 ft 438 kts 265°
2026-05-05 20:26 40.37925 28.24465 25000 ft 438 kts 264°
2026-05-05 20:26 40.37515 28.20517 25000 ft 438 kts 264°
2026-05-05 20:26 40.37102 28.16551 25016 ft 438 kts 264°
2026-05-05 20:27 40.36688 28.12596 24997 ft 438 kts 264°
2026-05-05 20:27 40.36272 28.08648 24995 ft 438 kts 264°
2026-05-05 20:27 40.35852 28.04686 24997 ft 437 kts 265°
2026-05-05 20:27 40.35433 28.00753 25009 ft 436 kts 265°
2026-05-05 20:28 40.35014 27.96818 25010 ft 436 kts 265°
2026-05-05 20:28 40.34600 27.92925 25000 ft 436 kts 265°
2026-05-05 20:28 40.34175 27.88941 24830 ft 436 kts 265°
2026-05-05 20:28 40.33758 27.85065 24480 ft 433 kts 265°
2026-05-05 20:29 40.33336 27.81172 24136 ft 431 kts 265°
2026-05-05 20:29 40.32914 27.77285 23790 ft 428 kts 265°
2026-05-05 20:29 40.32497 27.73439 23401 ft 425 kts 265°
2026-05-05 20:29 40.32081 27.69612 22992 ft 423 kts 265°
2026-05-05 20:30 40.31668 27.65819 22583 ft 420 kts 266°
2026-05-05 20:30 40.31257 27.62037 22180 ft 417 kts 266°
2026-05-05 20:30 40.30848 27.58292 21788 ft 414 kts 266°
2026-05-05 20:30 40.30439 27.54564 21398 ft 412 kts 266°
2026-05-05 20:31 40.30035 27.50869 21016 ft 409 kts 266°
2026-05-05 20:31 40.29630 27.47185 20622 ft 407 kts 266°
2026-05-05 20:31 40.29228 27.43577 20252 ft 404 kts 266°
2026-05-05 20:31 40.28817 27.39902 19877 ft 404 kts 266°
2026-05-05 20:32 40.28479 27.36257 19509 ft 411 kts 271°
2026-05-05 20:32 40.28446 27.32514 19158 ft 411 kts 275°
2026-05-05 20:32 40.28450 27.28765 18813 ft 411 kts 274°
2026-05-05 20:32 40.28446 27.24975 18487 ft 424 kts 274°
2026-05-05 20:33 40.28438 27.21069 18119 ft 428 kts 274°
2026-05-05 20:33 40.28424 27.17166 17723 ft 428 kts 274°
2026-05-05 20:33 40.28408 27.13267 17353 ft 428 kts 274°
2026-05-05 20:33 40.28391 27.09376 16985 ft 426 kts 274°
2026-05-05 20:34 40.28377 27.05501 16621 ft 424 kts 274°
2026-05-05 20:34 40.28364 27.01652 16237 ft 423 kts 274°
2026-05-05 20:34 40.28349 26.97811 15830 ft 420 kts 273°
2026-05-05 20:34 40.28330 26.94038 15435 ft 418 kts 273°
2026-05-05 20:35 40.28309 26.90239 15041 ft 417 kts 273°
2026-05-05 20:35 40.28287 26.86455 14638 ft 415 kts 273°
2026-05-05 20:35 40.28266 26.82678 14254 ft 414 kts 273°
2026-05-05 20:35 40.28248 26.78927 13863 ft 408 kts 273°
2026-05-05 20:36 40.28230 26.75263 13443 ft 398 kts 273°
2026-05-05 20:36 40.28209 26.71684 13021 ft 388 kts 273°
2026-05-05 20:36 40.28188 26.68201 12604 ft 378 kts 273°
2026-05-05 20:36 40.28166 26.64795 12194 ft 370 kts 273°
2026-05-05 20:37 40.28142 26.61465 11786 ft 362 kts 273°
2026-05-05 20:37 40.28127 26.59304 11521 ft 357 kts 273°
2026-05-05 20:37 40.28094 26.55007 10981 ft 347 kts 273°
2026-05-05 20:37 40.28068 26.51885 10593 ft 340 kts 273°
2026-05-05 20:38 40.28043 26.48806 10208 ft 334 kts 274°
2026-05-05 20:38 40.28018 26.45784 9803 ft 328 kts 274°
2026-05-05 20:38 40.27919 26.42816 9383 ft 326 kts 266°
2026-05-05 20:38 40.27360 26.39934 8965 ft 327 kts 253°
2026-05-05 20:39 40.26315 26.37322 8557 ft 329 kts 239°
2026-05-05 20:39 40.24814 26.35057 8150 ft 331 kts 225°
2026-05-05 20:39 40.23068 26.33083 7750 ft 330 kts 223°
2026-05-05 20:39 40.21337 26.31129 7352 ft 328 kts 223°
2026-05-05 20:40 40.19613 26.29177 6959 ft 327 kts 223°
2026-05-05 20:40 40.17903 26.27235 6571 ft 325 kts 223°
2026-05-05 20:40 40.16213 26.25316 6148 ft 319 kts 223°
2026-05-05 20:40 40.14557 26.23434 5736 ft 308 kts 223°
2026-05-05 20:41 40.12985 26.21652 5328 ft 291 kts 223°
2026-05-05 20:41 40.11496 26.19967 5026 ft 273 kts 223°
2026-05-05 20:41 40.10105 26.18394 4997 ft 260 kts 223°
2026-05-05 20:41 40.08750 26.16858 4998 ft 250 kts 223°
2026-05-05 20:42 40.07483 26.15427 4951 ft 238 kts 221°
2026-05-05 20:42 40.06066 26.14378 4780 ft 235 kts 197°
2026-05-05 20:42 40.04455 26.14154 4627 ft 233 kts 172°
2026-05-05 20:42 40.02928 26.14768 4475 ft 230 kts 148°
2026-05-05 20:43 40.01746 26.16033 4330 ft 216 kts 128°
2026-05-05 20:43 40.00810 26.17454 4219 ft 201 kts 129°
2026-05-05 20:43 39.99898 26.18819 4043 ft 198 kts 129°
2026-05-05 20:43 39.98996 26.20164 3862 ft 196 kts 129°
2026-05-05 20:44 39.98116 26.21509 3685 ft 192 kts 124°
2026-05-05 20:44 39.97707 26.23075 3539 ft 179 kts 89°
2026-05-05 20:44 39.98006 26.24614 3496 ft 176 kts 58°
2026-05-05 20:44 39.98838 26.25774 3491 ft 176 kts 40°
2026-05-05 20:45 40.00677 26.27846 3148 ft 168 kts 40°
2026-05-05 20:45 40.01535 26.28816 2937 ft 163 kts 40°
2026-05-05 20:45 40.02381 26.29774 2727 ft 160 kts 40°
2026-05-05 20:46 40.03217 26.30721 2516 ft 158 kts 40°
2026-05-05 20:46 40.04059 26.31676 2322 ft 157 kts 40°
2026-05-05 20:46 40.04871 26.32597 2094 ft 156 kts 41°
2026-05-05 20:46 40.05705 26.33542 1885 ft 160 kts 41°
2026-05-05 20:47 40.06550 26.34501 1662 ft 159 kts 41°
2026-05-05 20:47 40.07374 26.35437 1445 ft 158 kts 41°
2026-05-05 20:47 40.08201 26.36375 1247 ft 157 kts 41°
2026-05-05 20:47 40.09022 26.37308 1035 ft 156 kts 41°
2026-05-05 20:48 40.09841 26.38238 819 ft 155 kts 41°
2026-05-05 20:48 40.10624 26.39128 621 ft 143 kts 41°
2026-05-05 20:48 40.11359 26.39963 406 ft 138 kts 40°
2026-05-05 20:48 40.12072 26.40775 220 ft 134 kts 41°
2026-05-05 20:49 40.12776 26.41576 56 ft 134 kts 41°
2026-05-05 20:49 40.13217 26.42077 31 ft 115 kts 39°
2026-05-05 20:49 40.13645 26.42562 24 ft 61 kts 41°
2026-05-05 20:49 40.13856 26.42803 27 ft 29 kts 41°
2026-05-05 20:50 40.13998 26.42965 31 ft 25 kts 41°
2026-05-05 20:50 40.14116 26.43100 29 ft 21 kts 41°
2026-05-05 20:50 40.14228 26.43196 27 ft 17 kts 11°
2026-05-05 20:50 40.14334 26.43257 29 ft 15 kts 51°
2026-05-05 20:51 40.14284 26.43289 25 ft 12 kts 214°
2026-05-05 20:51 40.14228 26.43225 27 ft 9 kts 221°
2026-05-05 20:51 40.14190 26.43183 28 ft 5 kts 220°
2026-05-05 20:51 40.14141 26.43128 29 ft 21 kts 221°
2026-05-05 20:52 40.14034 26.43008 30 ft 14 kts 222°
2026-05-05 20:52 40.13967 26.42928 31 ft 12 kts 222°
2026-05-05 20:52 40.13905 26.42857 29 ft 13 kts 221°
2026-05-05 20:52 40.13810 26.42749 27 ft 19 kts 221°
2026-05-05 20:53 40.13724 26.42652 27 ft 12 kts 221°
2026-05-05 20:53 40.13716 26.42563 27 ft 10 kts 305°
2026-05-05 20:53 40.13744 26.42519 27 ft 2 kts 311°
2026-05-05 20:53 40.13751 26.42508 25 ft 2 kts 311°
2026-05-05 20:54 40.13764 26.42489 29 ft 3 kts 311°
2026-05-05 20:54 40.13783 26.42464 27 ft 8 kts 319°
2026-05-05 20:54 40.13823 26.42425 27 ft 5 kts 314°
2026-05-05 20:54 40.13842 26.42397 27 ft 2 kts 310°
2026-05-05 20:55 40.13846 26.42390 27 ft 0 kts 310°